GPS BIIR-17M (32260 NORAD) Tracking and Keplerian Element Data

This shows tracking and keplerian element data for the satellite.

Feedback or suggestion? Click here.




ElementValue
Catalog32260
NameGPS BIIR-17M
Epoch Orbit7878
Epoch Day195.48314289
Epoch Year2018
RAAN199.9869
Inclination53.1865
Eccentricity0.0102306
Argument of Perigee38.3054
Mean Anonmoly322.4317
Mean Motion2.00551163
Decay Rate5.1E-07
L11 32260U 07047A 18195.48314289 .00000051 00000-0 00000+0 0 9999
L22 32260 53.1865 199.9869 0102306 38.3054 322.4317 2.00551163 78784

Live tracking and technical data element details for GPS BIIR-17M (NORAD 32260). GPS BIIR-17M can be tracked NOW for your location showing map with azimuth and elevation plus other details from your city location.

Track the satellite on the map from your city or location and see movement details for azimuth, elevation, latitude, longitude, range, height, and movement on the map or in text.







IsCatalogInMostPopularTable: catalog: 32260, numindb: 39
Update: records affected: 1



GetName: 32260 GPS BIIR-17M

Hit Count: updated at: Sun, 15 Jul 2018 23:16:36 GMT